Regional Weather Roundup
Issued by NWS

Home | Current Version | Previous Version | Graphics & Text | Print | Product List | Glossary On
Versions: 1 2 3 4 5 6 7 8 9 10 11 12 13 14 15 16 17 18 19 20 21 22 23 24 25 26 27 28 29 30 31 32 33 34 35 36 37 38 39 40 41 42 43 44 45 46 47 48 49 50
000
ASUS45 KABQ 282001
RWRNM
WEATHER ROUNDUP FOR NEW MEXICO
NATIONAL WEATHER SERVICE ALBUQUERQUE NM
100 PM MST WED JAN 28 2015

NOTE: "FAIR" MEANS FEW OR NO CLOUDS BELOW 12,000 FEET AGL WITH NO
       SIGNIFICANT WEATHER OR OBSTRUCTIONS TO VISION.

      THIS PRODUCT IS RELEASED AS TWO VERSIONS.  ONE VERSION NEAR
      THE TOP OF THE HOUR CONTAINING PRELIMINARY DATA FROM ALBUQUERQUE
      AND OTHER STATIONS.  A FINAL VERSION WITH ADDITIONAL DATA IS
      ISSUED ABOUT 10 MINUTES AFTER THE HOUR.

NMZ501-503-504-510>518-282100-
NORTHWEST PLATEAU/NORTHCENTRAL MOUNTAINS

CITY           SKY/WX    TMP DP  RH WIND       PRES   REMARKS
FARMINGTON     SUNNY     54  33  45 W8        30.24F
SANTA FE       SUNNY     55  27  34 NW10G17   30.20F
TAOS           SUNNY     50  30  46 SW12      30.23F

$$
NMZ402-403-502-505>509-282100-
WESTCENTRAL MOUNTAINS/SOUTHWEST MOUNTAINS

CITY           SKY/WX    TMP DP  RH WIND       PRES   REMARKS
GALLUP         MOSUNNY   51  30  44 VRB3      30.27F
SILVER CITY    MOSUNNY   64  32  29 W5        30.22F

$$
NMZ407-409-411-412-282100-
SOUTHERN DESERTS

CITY           SKY/WX    TMP DP  RH WIND       PRES   REMARKS
DEMING         MOSUNNY   68  39  34 CALM      30.17F
ALAMOGORDO     MOSUNNY   68  36  30 N7        30.18F
T OR C         SUNNY     64  36  35 VRB7      30.18F

$$
NMZ519>523-282100-
CENTRAL VALLEYS/CENTRAL HIGHLANDS

CITY           SKY/WX    TMP DP  RH WIND       PRES   REMARKS
ALBUQUERQUE    MOSUNNY   61  29  29 W15       30.21F
DOUBLE EAGLE   MOSUNNY   57  30  35 W9        30.23F
MORIARTY ARPT  FAIR      59  28  30 NW13G21   30.19F
CLINES CORNERS SUNNY     53  28  38 NW38G47   30.14F
BELEN          NOT AVBL
SOCORRO        NOT AVBL

$$
NMZ524>526-539-540-282100-
SOUTHCENTRAL MOUNTAINS

CITY           SKY/WX    TMP DP  RH WIND       PRES   REMARKS
RUIDOSO        NOT AVBL

$$
NMZ527>531-282100-
NORTHEAST HIGHLANDS/NORTHEAST PLAINS

CITY           SKY/WX    TMP DP  RH WIND       PRES   REMARKS
LAS VEGAS      SUNNY     60  25  26 SE10      30.11F
RATON          SUNNY     66  11  11 W22G31    30.04F
CLAYTON        SUNNY     67  26  21 MISG      30.04F

$$
NMZ532>537-282100-
EASTCENTRAL PLAINS

CITY           SKY/WX    TMP DP  RH WIND       PRES   REMARKS
TUCUMCARI      SUNNY     69   3   7 SW3       30.04F
CANNON AFB     SUNNY     67  34  28 W24G30    30.07F
CLOVIS AIRPORT SUNNY     68  36  30 W22G28    30.07F

$$
NMZ028-029-538-282100-
SOUTHEAST PLAINS

CITY           SKY/WX    TMP DP  RH WIND       PRES   REMARKS
ROSWELL        SUNNY     73  36  25 NW8       30.10F
ARTESIA        SUNNY     70  37  30 E7        30.11F
CARLSBAD       SUNNY     76  38  25 W18       30.08F
HOBBS          SUNNY     72  37  28 W13       30.11F


$$


USA.gov is the U.S. government's official web portal to all federal, state and local government web resources and services.